STARLINK-33963, 63968

Orbit data source: Space-Track

STARLINK-33963, 63968 is a payload satellite owned by SpaceX/Seattle (US) in LEO that was launched on Tue, 13 May 2025 UTC via an FALCON 9 launch vehicle from the Air Force Eastern Test Range (AFETR). Payload-class satellites include a variety of spacecraft equipped with specific instruments for various scientific and technological missions. These include communications satellites like Starlink; space stations such as the ISS; scientific satellites like the Hubble; Earth observation satellites from companies like Planet Labs, Umbra, and HawkEye 360; GPS; miniature CubeSats for education and research; and military/defense satellites.

Loading next visibility...
Identifier
63968, 2025-099S
Orbit
LEO
Country
Flag of USUS
Related business
Manufacturer
SpaceX/Seattle
Mission
Operational Commercial Communications
Bus & Motor
STARLINK V2MO, Unknown motor
Mass
575 kg wet, ~530 kg dry
Launch date (UTC)
2025-05-13 (7 months ago)
Launch vehicle
FALCON 9
Launch site
Air Force Eastern Test Range (AFETR)
Object type
Payload
Rocket body
Debris
Shape & HBR
Box + 2 Pan, 17.7 m
Radar Cross Section
36.964 m², Large (>1 m²)

Expand to show TLE details & history
Last TLE update: 22 hours ago

TLE from 22 hours ago
0 STARLINK-33963
1 63968U 25099S   25346.62235290  .00033670  00000-0  12283-2 0  9993
2 63968  43.0022 307.6576 0001729 270.3265  89.7389 15.27557610 34025
Epoch: 2025-12-12T14:56Z
TLE epoch observation values (Epoch: 2025-12-12T14:56:11.290Z)
Latitude
0.00001°
Longitude
2.04924°
Altitude
482.887 km
Speed
7.626 km/s
True Right ascension
20h 30m 37s
True Declination
0° 00' 00"
Sunlit
Object was in daylight at epoch
Visualization orbit readout
Latitude
Unknown
Longitude
Unknown
Altitude
Unknown
Speed
Unknown
Apparent Right ascension
Unknown
Apparent Declination
Unknown
Sunlit
N/A
Visualization observer readout
Local Sidereal Time
11:28:46
Azimuth
Unknown
Elevation
Unknown
Doppler factor
Unknown
Orbital elements
Apogee altitude
486.248 km
Perigee altitude
483.874 km
Semi-major axis
6,863.198 km
Eccentricity
0.00017
Inclination
43.0022°
RAAN
307.6576°
Arg. of periapsis
270.3265°
True anomaly
89.75871°
Mean anomaly
89.7389°
Eccentric anomaly
89.74881°
Mean motion
3.81727 °/min
Orbital period
94.31 mins
BSTAR
0.0012283
Loading maneuver chart data...
Computing Atmospheric mass density...
Loading historical data...
Loading historical data...
Loading historical data...
Loading historical data...
Loading historical data...
Loading historical data...
Loading historical data...

Documentation

Showing up to 5 results
|